www.pogodaiklimat.ru

Погода и климат >> Архив погоды >> Норвегия >> Маяк Lista


ПОГОДА на Маяке Lista

  • Прогноз погоды на Маяке Lista
  • Монитор погоды на Маяке Lista

АРХИВ ПОГОДЫ на Маяке Lista

Время (UTC), дата Ветер
(напр.,м/с)
 
Видим.   Явления Облачность Т
(С)
Тd
(С)
f
(%)
Тe
(С)
Тes
(С)
Комфортность P
(гПа)
Po
(гПа)
Тmin
(С)
Tmax
(С)
R
(мм)
R24
(мм)
S
(см)
07 18.03 СЗ 7-12
{13}
н/о н/о +4.4 0.0 73 -1 -1 997.4 995.8
08 18.03 СЗ 8-12
{12}
н/о н/о +5.2 +0.6 72 -0 -0 999.6 997.9
09 18.03 СЗ 6-10
{11}
н/о н/о +5.7 +0.5 69 +1 +1 1001.1 999.5
10 18.03 СЗ 8-11
{11}
н/о н/о +6.6 +0.9 67 +2 +2 1002.6 1001.0
11 18.03 СЗ 9-11
{12}
н/о н/о +7.0 +0.5 63 +2 +2 1003.8 1002.2
12 18.03 СЗ 8-10
{13}
н/о н/о +7.5 +0.7 62 +3 +3 1005.0 1003.4
13 18.03 С 7-9
{11}
н/о н/о +7.9 -0.1 57 +4 +4 1006.1 1004.4
14 18.03 СЗ 5-9
{9}
н/о н/о +8.3 +0.1 56 +5 +5 1006.8 1005.2
15 18.03 СЗ 7-11
{11}
н/о н/о +6.8 +1.5 69 +2 +2 1007.6 1006.0
16 18.03 СЗ 6-9
{11}
н/о н/о +6.6 +1.5 70 +2 +2 1008.8 1007.1
17 18.03 С 6-9
{10}
н/о н/о +6.3 -1.1 59 +2 +2 1010.4 1008.7
18 18.03 СЗ 7-10
{11}
н/о н/о +5.5 +0.1 68 0 0 1011.5 1009.9 +3.6 +8.3
19 18.03 СЗ 5-8
{10}
н/о н/о +5.0 +0.6 73 +1 +1 1013.3 1011.6
20 18.03 СЗ 7-10
{10}
н/о н/о +4.6 +0.2 73 -1 -1 1014.1 1012.4
21 18.03 СЗ 4-7
{10}
н/о н/о +4.3 -0.1 73 0 0 1015.4 1013.7
22 18.03 СЗ 6-8
{8}
н/о н/о +4.0 -0.4 73 -1 -1 1016.3 1014.6
23 18.03 С 6-7
{8}
н/о н/о +3.4 -0.6 75 -2 -2 1017.2 1015.5
00 19.03 С 4-5
{10}
н/о н/о +1.8 -2.3 74 -3 -3 1017.8 1016.1
01 19.03 С 3-4
{4}
н/о н/о +1.6 -4.2 65 -2 -2 1018.7 1017.0
02 19.03 С 3-4
{5}
н/о н/о +1.2 -4.2 67 -3 -3 1019.5 1017.8
03 19.03 СВ 4-5
{6}
н/о н/о +1.3 -4.9 63 -3 -3 1020.2 1018.5
04 19.03 СВ 3-4
{6}
н/о н/о +1.5 -6.1 57 -2 -2 1020.6 1018.9
05 19.03 СВ 1-2
{4}
н/о н/о +0.2 -4.8 69 -1 -1 1020.9 1019.2
06 19.03 СВ 2-3
{6}
н/о н/о -1.0 -4.9 75 -5 -5 1021.3 1019.6 -1.1 +5.5
07 19.03 СВ 3-4
{4}
н/о н/о +2.2 -3.3 67 -2 -2 1022.2 1020.5
08 19.03 С 3-4
{4}
н/о н/о +4.1 -3.9 56 +1 +1 1022.2 1020.6
09 19.03 С 3-4
{4}
н/о н/о +4.1 -2.1 64 +1 +1 1022.9 1021.3
10 19.03 С 2-3
{4}
н/о н/о +4.6 -0.8 68 +2 +2 1023.3 1021.6
11 19.03 З 3-4
{4}
н/о н/о +5.3 +1.4 76 +2 +2 1023.5 1021.8
12 19.03 З 4-5
{6}
н/о н/о +6.4 +2.1 74 +3 +3 1023.8 1022.1
13 19.03 З 3-4
{5}
н/о н/о +5.8 +1.5 74 +3 +3 1023.7 1022.0
14 19.03 З 2-3
{4}
н/о н/о +6.1 +1.1 70 +4 +4 1023.5 1021.8
15 19.03 Ю 2-2
{2}
н/о н/о +5.6 +0.6 70 +3 +3 1023.4 1021.7
16 19.03 ЮВ 2-2
{3}
н/о н/о +5.2 +1.0 74 +3 +3 1023.0 1021.3
17 19.03 ЮВ 3-3
{3}
н/о н/о +5.5 +2.2 79 +2 +2 1023.3 1021.6
18 19.03 ЮВ 3-4
{5}
н/о н/о +5.2 +2.7 84 +2 +2 1023.2 1021.5 -0.9 +6.6
19 19.03 ЮВ 4-5
{5}
н/о н/о +5.5 +3.7 88 +1 +1 1022.9 1021.2
20 19.03 Ю 6-8
{8}
н/о н/о +5.5 +4.0 90 0 0 1022.3 1020.7
21 19.03 Ю 8-9
{9}
н/о н/о +5.6 +4.7 94 -0 -0 1021.6 1019.9
22 19.03 Ю 8-9
{9}
н/о н/о +5.6 +5.0 96 -0 -0 1020.8 1019.1 0.1
23 19.03 Ю 7-8
{9}
н/о н/о +5.7 +5.4 98 0 0 1020.5 1018.8 0.6
00 20.03 Ю 7-9
{9}
н/о н/о +5.7 +5.6 99 0 0 1019.7 1018.1 2
01 20.03 ЮЗ 10-12
{12}
н/о н/о +5.8 +5.7 99 -1 -1 1018.8 1017.1 0.3
02 20.03 З 10-12
{13}
н/о н/о +6.3 +6.3 100 0 0 1018.3 1016.7 0.2
03 20.03 З 9-11
{13}
н/о н/о +6.4 +6.3 99 +1 +1 1018.0 1016.4
04 20.03 З 8-9
{11}
н/о н/о +6.0 +5.9 99 0 0 1018.3 1016.6
05 20.03 З 9-10
{11}
н/о н/о +6.1 +5.8 98 0 0 1018.8 1017.2
06 20.03 СЗ 9-10
{13}
н/о н/о +5.8 +5.5 98 -0 -0 1019.7 1018.0 +5.2 +6.5 3
07 20.03 З 7-9
{9}
н/о н/о +5.7 +5.3 97 0 0 1020.5 1018.8
08 20.03 СЗ 5-7
{11}
н/о н/о +6.4 +5.7 95 +2 +2 1021.3 1019.7
09 20.03 СЗ 7-9
{9}
н/о н/о +6.9 +5.4 90 +2 +2 1022.4 1020.7
10 20.03 З 9-11
{11}
н/о н/о +7.5 +5.7 88 +2 +2 1022.8 1021.1
11 20.03 З 10-12
{12}
н/о н/о +7.6 +5.8 88 +2 +2 1023.2 1021.6
12 20.03 З 8-10
{12}
н/о н/о +7.7 +5.5 86 +3 +3 1024.0 1022.3
13 20.03 З 7-8
{9}
н/о н/о +7.6 +5.6 87 +3 +3 1024.2 1022.6
14 20.03 З 6-7
{8}
н/о н/о +7.2 +5.5 89 +3 +3 1024.3 1022.6
15 20.03 З 6-7
{8}
н/о н/о +6.9 +5.4 90 +2 +2 1024.8 1023.1
16 20.03 З 5-6
{7}
н/о н/о +7.0 +5.5 90 +3 +3 1024.9 1023.2
17 20.03 ЮЗ 4-5
{7}
н/о н/о +6.3 +5.4 94 +2 +2 1025.2 1023.6
18 20.03 Ю 4-4
{9}
н/о н/о +6.3 +5.6 95 +2 +2 1025.1 1023.4 +5.7 +8.0
19 20.03 Ю 4-5
{6}
н/о н/о +6.2 +5.6 96 +2 +2 1025.1 1023.4
20 20.03 Ю 4-5
{5}
н/о н/о +6.0 +5.7 98 +2 +2 1024.7 1023.0 0.1
21 20.03 Ю 5-6
{6}
н/о н/о +6.2 +6.1 99 +2 +2 1024.5 1022.8 0.2
22 20.03 Ю 6-8
{8}
н/о н/о +6.3 +6.2 99 +1 +1 1024.1 1022.4
23 20.03 ЮЗ 8-9
{10}
н/о н/о +6.5 +6.4 99 +1 +1 1023.6 1021.9
00 21.03 Ю 6-7
{10}
н/о н/о +6.3 +6.2 99 +1 +1 1022.8 1021.1
01 21.03 ЮЗ 8-9
{9}
н/о н/о +6.7 +6.4 98 +1 +1 1022.2 1020.5
02 21.03 ЮЗ 6-8
{8}
н/о н/о +6.8 +6.5 98 +2 +2 1021.7 1020.1
03 21.03 ЮЗ 7-8
{10}
н/о н/о +6.8 +6.7 99 +2 +2 1021.2 1019.5
04 21.03 З 6-7
{9}
н/о н/о +6.6 +6.5 99 +2 +2 1020.9 1019.2
05 21.03 С 3-5
{7}
н/о н/о +6.7 +6.6 99 +3 +3 1021.0 1019.3
06 21.03 З 6-7
{10}
н/о н/о +6.9 +6.6 98 +2 +2 1020.9 1019.3 +6.0 +7.0 0.3
07 21.03 СЗ 3-5
{10}
н/о н/о +6.9 +6.5 97 +4 +4 1021.5 1019.8
08 21.03 З 8-10
{10}
н/о н/о +7.1 +6.7 97 +2 +2 1021.5 1019.8
09 21.03 С 3-5
{9}
н/о н/о +7.1 +6.7 97 +4 +4 1022.2 1020.5
10 21.03 СЗ 4-7
{8}
н/о н/о +7.2 +6.6 96 +3 +3 1022.5 1020.8
11 21.03 З 6-8
{8}
н/о н/о +6.7 +6.3 97 +2 +2 1023.1 1021.4
12 21.03 З 9-10
{11}
н/о н/о +7.0 +6.7 98 +1 +1 1023.5 1021.9
13 21.03 З 8-10
{10}
н/о н/о +6.9 +6.8 99 +1 +1 1023.9 1022.2
14 21.03 З 10-12
{12}
н/о н/о +6.6 +6.5 99 +1 +1 1024.2 1022.5
15 21.03 З 9-10
{12}
н/о н/о +6.7 +6.6 99 +1 +1 1024.8 1023.2
17 21.03 СЗ 8-10
{13}
н/о н/о +6.6 +5.4 92 +1 +1 1026.6 1025.0
18 21.03 СЗ 9-11
{13}
н/о н/о +6.2 +5.2 93 0 0 1027.3 1025.6 +6.2 +7.5
19 21.03 СЗ 8-10
{11}
н/о н/о +6.1 +4.8 91 +1 +1 1028.3 1026.6
20 21.03 СЗ 8-10
{10}
н/о н/о +5.8 +4.5 91 0 0 1028.4 1026.8
21 21.03 СЗ 4-8
{10}
н/о н/о +5.4 +4.2 92 +1 +1 1029.1 1027.4
22 21.03 СЗ 3-6
{7}
н/о н/о +5.1 +4.4 95 +1 +1 1030.1 1028.4
23 21.03 С 2-3
{5}
н/о н/о +4.4 +4.0 97 +1 +1 1030.7 1029.0
01 22.03 В 2-2
{3}
н/о н/о +1.0 +0.6 97 -3 -3 1030.2 1028.5
02 22.03 В 3-4
{4}
н/о н/о -0.3 -0.8 96 -5 -5 1029.8 1028.1
03 22.03 В 2-3
{4}
н/о н/о +0.6 -0.2 94 -3 -3 1029.5 1027.8
04 22.03 ЮВ 2-2
{3}
н/о н/о +1.9 +1.0 94 -2 -2 1029.4 1027.7
05 22.03 В 5-6
{6}
н/о н/о +2.1 +0.5 89 -4 -4 1029.0 1027.3
06 22.03 ЮВ 4-4
{6}
н/о н/о +2.6 +0.2 84 -2 -2 1029.1 1027.4 -0.3 +6.2
07 22.03 В 6-7
{7}
н/о н/о +4.4 +1.1 79 -1 -1 1028.8 1027.1
08 22.03 ЮВ 7-9
{9}
н/о н/о +6.2 +2.1 75 +1 +1 1028.3 1026.7
09 22.03 В 8-11
{11}
н/о н/о +6.0 +3.3 83 +1 +1 1027.9 1026.2
10 22.03 ЮВ 9-11
{12}
н/о н/о +5.7 +4.0 89 -0 -0 1027.8 1026.1
11 22.03 В 8-11
{12}
н/о н/о +5.2 +4.8 97 -1 -1 1026.6 1024.9 0.1
12 22.03 ЮВ 8-11
{12}
н/о н/о +5.4 +5.1 98 -1 -1 1025.6 1023.9 0.1
13 22.03 ЮВ 9-11
{12}
н/о н/о +5.8 +5.7 99 -0 -0 1024.6 1022.9 0.7
14 22.03 ЮВ 7-9
{11}
н/о н/о +5.7 +5.6 99 0 0 1023.5 1021.8 0.1
15 22.03 ЮВ 9-11
{12}
н/о н/о +5.8 +5.8 100 -0 -0 1022.9 1021.2
16 22.03 Ю 8-9
{10}
н/о н/о +5.9 +5.9 100 0 0 1021.9 1020.3
17 22.03 ЮВ 9-10
{10}
н/о н/о +5.9 +5.9 100 -0 -0 1020.9 1019.2 0.1
18 22.03 Ю 9-10
{12}
н/о н/о +5.8 +5.8 100 -0 -0 1020.2 1018.5 +2.6 +6.6 1
19 22.03 Ю 9-11
{11}
н/о н/о +6.0 +6.0 100 -0 -0 1019.5 1017.8 0.2
20 22.03 Ю 9-10
{11}
н/о н/о +6.2 +6.2 100 0 0 1018.8 1017.1 0.4
21 22.03 Ю 9-11
{11}
н/о н/о +6.5 +6.5 100 +1 +1 1018.1 1016.5
22 22.03 ЮЗ 10-12
{12}
н/о н/о +6.5 +6.5 100 0 0 1017.6 1015.9 0.4
23 22.03 ЮЗ 11-14
{14}
н/о н/о +6.9 +6.8 99 +1 +1 1017.4 1015.7 0.5
00 23.03 ЮЗ 10-11
{14}
н/о н/о +6.6 +6.3 98 +1 +1 1017.2 1015.5
01 23.03 З 10-12
{12}
н/о н/о +6.5 +5.9 96 0 0 1017.3 1015.6
02 23.03 З 10-11
{12}
н/о н/о +6.3 +5.4 94 0 0 1017.7 1016.0
03 23.03 З 9-11
{11}
н/о н/о +6.1 +4.3 88 0 0 1018.2 1016.5
04 23.03 З 9-10
{13}
н/о н/о +6.0 +3.7 85 0 0 1018.8 1017.1
05 23.03 З 9-11
{11}
н/о н/о +5.9 +3.1 82 0 0 1019.3 1017.6
06 23.03 З 9-11
{13}
н/о н/о +6.0 +1.9 75 0 0 1019.9 1018.2 +5.7 +6.9 2
07 23.03 З 8-9
{11}
н/о н/о +5.9 +3.1 82 0 0 1020.8 1019.1
08 23.03 З 11-13
{14}
н/о н/о +6.5 +2.2 74 +1 +1 1021.5 1019.8
09 23.03 З 11-13
{17}
н/о н/о +5.6 +1.7 76 -1 -1 1022.1 1020.4
10 23.03 З 11-13
{13}
н/о н/о +6.4 +2.7 77 0 0 1022.5 1020.8 0.1
11 23.03 З 11-14
{14}
н/о н/о +6.6 +2.7 76 +1 +1 1022.7 1021.0
12 23.03 З 12-14
{17}
н/о н/о +7.1 +2.8 74 +1 +1 1023.1 1021.5
13 23.03 З 12-15
{16}
н/о н/о +6.9 +3.0 76 +1 +1 1023.4 1021.7
14 23.03 З 13-15
{16}
н/о н/о +7.0 +3.3 77 +1 +1 1023.7 1022.0
15 23.03 З 12-14
{15}
н/о н/о +6.7 +3.3 79 +1 +1 1023.9 1022.3
16 23.03 З 11-14
{15}
н/о н/о +4.8 +2.5 85 -2 -2 1024.6 1022.9 0.1
17 23.03 З 11-13
{14}
н/о н/о +6.0 +3.7 85 -0 -0 1024.7 1023.0 0.2
18 23.03 З 11-14
{16}
н/о н/о +5.8 +3.5 85 -1 -1 1025.0 1023.3 +4.8 +7.1 0.4
19 23.03 З 13-15
{15}
н/о н/о +5.9 +2.7 80 -1 -1 1025.6 1023.9
20 23.03 З 11-13
{15}
н/о н/о +5.7 +3.4 85 -1 -1 1026.2 1024.5
21 23.03 З 10-12
{13}
н/о н/о +5.7 +3.4 85 -1 -1 1026.4 1024.7
22 23.03 З 10-12
{12}
н/о н/о +5.8 +3.5 85 -0 -0 1026.3 1024.6
23 23.03 З 9-11
{12}
н/о н/о +5.7 +3.4 85 -0 -0 1026.1 1024.4
00 24.03 З 10-12
{15}
н/о н/о +5.6 +3.6 87 -1 -1 1025.6 1023.9
01 24.03 З 9-11
{13}
н/о н/о +5.5 +3.7 88 -1 -1 1024.9 1023.3
02 24.03 З 9-11
{11}
н/о н/о +5.6 +4.3 91 -1 -1 1024.4 1022.7
03 24.03 З 9-11
{11}
н/о н/о +5.7 +4.0 89 -0 -0 1023.9 1022.2
04 24.03 ЮЗ 8-10
{11}
н/о н/о +5.7 +4.5 92 0 0 1023.4 1021.7
05 24.03 ЮЗ 8-10
{11}
н/о н/о +5.7 +4.8 94 -0 -0 1022.6 1020.9
06 24.03 ЮЗ 9-11
{13}
н/о н/о +5.7 +5.0 95 -0 -0 1021.8 1020.1 +5.4 +5.9
07 24.03 ЮЗ 10-12
{12}
н/о н/о +5.9 +5.0 94 -0 -0 1021.2 1019.5
08 24.03 ЮЗ 10-12
{12}
н/о н/о +6.1 +4.8 91 -0 -0 1020.6 1019.0
09 24.03 ЮЗ 8-10
{12}
н/о н/о +6.1 +4.3 88 +1 +1 1020.2 1018.5
10 24.03 ЮЗ 9-10
{11}
н/о н/о +6.7 +4.2 84 +1 +1 1019.2 1017.6
11 24.03 ЮЗ 9-11
{12}
н/о н/о +6.5 +4.0 84 +1 +1 1018.4 1016.7
12 24.03 ЮЗ 9-11
{12}
н/о н/о +7.0 +4.0 81 +2 +2 1017.3 1015.7
13 24.03 ЮЗ 8-9
{11}
н/о н/о +7.4 +4.5 82 +2 +2 1016.2 1014.5
14 24.03 ЮЗ 9-10
{11}
н/о н/о +6.6 +3.9 83 +1 +1 1014.8 1013.2
15 24.03 ЮЗ 10-12
{13}
н/о н/о +6.2 +4.0 86 0 0 1013.8 1012.2
16 24.03 ЮЗ 8-10
{12}
н/о н/о +6.1 +4.3 88 +1 +1 1012.6 1011.0
17 24.03 ЮЗ 10-16
{16}
н/о н/о +5.9 +4.7 92 -0 -0 1010.8 1009.1 0.4
18 24.03 З 7-8
{21}
н/о н/о +4.4 +2.8 89 -1 -1 1010.2 1008.5 +4.1 +7.8 1
19 24.03 З 8-9
{15}
н/о н/о +4.7 +2.9 88 -1 -1 1009.6 1007.9 0.1
20 24.03 З 10-12
{12}
н/о н/о +5.0 +2.7 85 -1 -1 1009.0 1007.3
21 24.03 З 10-12
{12}
н/о н/о +5.0 +2.9 86 -2 -2 1008.3 1006.6
22 24.03 СЗ 8-11
{13}
н/о н/о +4.5 +2.0 84 -2 -2 1008.3 1006.6
23 24.03 СЗ 7-11
{12}
н/о н/о +4.2 +1.8 84 -2 -2 1008.1 1006.5
00 25.03 СЗ 7-10
{15}
н/о н/о +4.0 +1.9 86 -2 -2 1008.2 1006.5
01 25.03 СЗ 5-9
{11}
н/о н/о +3.8 +1.5 85 -1 -1 1008.1 1006.4
02 25.03 СЗ 6-11
{11}
н/о н/о +4.1 +2.1 87 -1 -1 1008.3 1006.6
03 25.03 СЗ 8-13
{14}
н/о н/о +4.3 +1.5 82 -2 -2 1008.2 1006.5
04 25.03 СЗ 8 н/о н/о +4.0 +1.7 85 -2 -2 1009.1 1007.4
05 25.03 СЗ 10-13
{15}
н/о н/о +4.2 +1.6 83 -3 -3 1010.2 1008.5
06 25.03 С 7-11
{15}
н/о н/о +4.3 +1.5 82 -1 -1 1012.2 1010.6 +3.6 +5.2 0.1

 

Местоположение метеостанции Маяк Lista (Норвегия): широта 58.11 долгота 6.57 высота над уровнем моря 14 м.

В архиве по умолчанию представлена погода на Маяке Lista за последнюю неделю. Архивные данные за месяц целиком и за предыдущие месяцы, начиная с января 2011 года, Вы можете получить, выбрав интересующий диапазон дат из раскрывающегося списка и нажав кнопку "Ввод!".


*Определитесь, кто Вы:
робот инопланетянин человек

Внимание! Время в таблицах - всемирное. Для получения местного времени необходимо прибавить поправку, которая равна 1 ч.

Смотрите также архив погоды в соседних городах и на ближайших метеорологических станциях:

Погода на Маяке Lindesnes (Норвегия) (32 км)
Погода в Эйк-Хоуве (Норвегия) (45 км)
Погода в Консмо-Хойланде (Норвегия) (51 км)
Погода в Мандале (Норвегия) (53 км)
Погода в Айгеройе (Норвегия) (55 км)
Погода на Маяке Obrestad (Норвегия) (84 км)
Погода на Маяке Oksoy (Норвегия) (87 км)
Погода в Кьевике (Норвегия) (89 км)
Погода в Сархейме (Норвегия) (90 км)
Погода в Сирдал-Синнесе (Норвегия) (92 км)

Пояснения к столбцам:

Ветер - указаны скорость ветра в м/с - средняя за 10 мин, порывы в срок и между сроками (в фигурных скобках) и направление, откуда дует ветер: С - северный, СВ - северо-восточный, В - восточный, ЮВ - юго-восточный, Ю - южный, ЮЗ - юго-западный, З - западный, СЗ - северо-западный.
Видимость - горизонтальная дальность видимости в метрах или километрах. При видимости от 1 до 10 км при отсутствии осадков обычно наблюдается дымка, при ухудшении видимости до 1 км и менее - туман. В сухую погоду видимость может ухудшаться дымом, пылью или мглою.
Явления - указаны атмосферные явления, наблюдавшиеся в срок или в последний час перед сроком; фигурными скобками обозначены явления, наблюдавшиеся между сроками (за 1-3 часа до срока); квадратными скобками обозначены град или гололедные отложения с указанием их диаметра в мм.
Облачность - указаны через наклонную черту общая и нижняя облачность в баллах и высота нижней границы облаков в метрах; квадратными скобками обозначены формы облаков: Ci - перистые, Cs - перисто-слоистые, Cc - перисто-кучевые, Ac - высококучевые, As - высокослоистые, Sc - слоисто-кучевые, Ns - слоисто-дождевые, Cu - кучевые, Cb - кучево-дождевые. Подробнее классификацию облаков см. в Атласе облаков (PDF).
T - Температура воздуха - температура, измеренная на высоте 2 м над землей.
Td - Температура точки росы - температура, при понижении до которой содержащийся в воздухе водяной пар достигнет насыщения.
f - Относительная влажность воздуха - влажноcть воздуха, измеренная на высоте 2 м над землей.
Te - Эффективная температура - температура, которую ощущает одетый по сезону человек в тени. Характеристика душности погоды. При расчете учитывается влияние влажности воздуха и скорости ветра на теплоощущения человека.
Tes - Эффективная температура на солнце - температура, которую ощущает человек, с поправкой на солнечный нагрев. Характеристика знойности погоды. Зависит от высоты солнца над горизонтом, облачности и скорости ветра. Ночью, в пасмурную погоду, а также при ветре 12 м/с и более поправка равна нулю.
P - Атмосферное давление - приведенное к уровню моря атмосферное давление.
Po - Атмосферное давление - измеренное на уровне метеостанции атмосферное давление.
Tmin - Минимальная температура - минимум температуры воздуха на высоте 2 м над землей.
Tmax - Максимальная температура - максимум температуры воздуха на высоте 2 м над землей.
R - Количество осадков - Количество выпавших осадков за период времени, мм. При наведении курсора мыши на число - период времени, за который выпало указанное количество осадков.
R24 - Количество осадков - Количество выпавших осадков за 24 часа, мм.
S - Снежный покров - Высота снежного покрова, см. При наведении курсора мыши на число - состояние снежного покрова и степень покрытия местности в баллах.